Location: Bun
(42.9667°N, 0.1500°W)
Time: 14:11:48
(UTC+00:00)

Daily predictions for brighter satellites

Satellite Brightness Start Highest point End
(mag) Time Altitude Azimuth Time Altitude Azimuth Time Altitude Azimuth
H-2A R/B 4.4 17:39:10 10° SSW 17:43:39 29° W 17:48:16 10° NW
Cosmos 2266 Rocket 4.1 17:39:54 10° N 17:46:13 89° E 17:52:22 10° S
Cosmos 1328 3.7 17:43:36 10° S 17:47:34 71° E 17:51:31 10° NNE
Cosmos 1844 Rocket 3.4 17:43:45 10° N 17:48:42 32° NE 17:53:38 10° ESE
NOAA 6 4.0 17:46:33 10° SSE 17:51:42 81° ENE 17:56:53 10° NNW
Lacrosse 5 rocket 2.8 17:51:05 10° NNW 17:53:28 16° NNE 17:55:52 10° ENE
CZ-4B R/B 4.1 17:51:23 10° ESE 17:55:39 25° ENE 17:59:58 10° N
DELTA 2 DEB (DPAF) 4.3 17:51:24 10° N 17:55:48 80° WNW 18:00:10 10° SSW
Cosmos 2227 4.4 17:57:21 10° NNW 18:03:09 84° WSW 18:08:54 10° SSE
SKYMED 2 3.5 17:59:21 10° NNE 18:03:41 66° E 18:07:59 10° S
CZ-4 R/B 2.9 18:01:52 10° ESE 18:04:31 17° ENE 18:07:09 10° NNE
Cosmos 1844 4.3 17:59:25 10° N 18:04:47 37° ENE 18:10:05 10° ESE
Cosmos 1892 2.6 18:01:30 10° S 18:05:10 67° E 18:08:55 10° NNE
Cosmos 468 Rocket 4.2 18:02:47 10° N 18:07:46 46° ENE 18:12:40 10° SE
Cosmos 2058 Rocket 4.2 18:04:29 10° NNE 18:07:59 22° ENE 18:11:28 10° SE
Cosmos 2360 Rocket 2.6 18:03:48 10° S 18:09:05 43° ESE 18:14:25 10° NE
Cosmos 2219 Rocket 3.5 18:05:39 10° SE 18:09:26 19° E 18:12:21 13° ENE
CZ-4C R/B 3.1 18:07:23 10° NNE 18:11:11 64° ESE 18:14:45 10° S
YAOGAN 1 3.2 18:07:22 10° SE 18:11:11 32° ENE 18:15:01 10° N
Cosmos 1825 2.2 18:11:35 10° S 18:15:10 51° E 18:18:46 10° NNE
Atlas Centaur 2 4.5 18:09:12 10° SSW 18:15:14 23° SSE 18:21:32 10° ESE
Cosmos 1954 Rocket 4.0 18:11:05 10° SSW 18:16:20 84° ESE 18:21:35 10° NNE
RESURS DK-1 3.1 18:13:38 10° N 18:17:18 30° ENE 18:20:31 12° ESE
Cosmos 2333 Rocket 2.9 18:12:25 10° SSE 18:17:24 33° ESE 18:22:21 10° NE
Cosmos 2322 Rocket 2.1 18:15:37 10° SSW 18:21:13 81° ESE 18:26:51 10° NNE
USA 215 3.6 18:16:43 10° SE 18:23:15 71° SW 18:29:49 10° NW
Cosmos 1763 Rocket 3.4 18:19:54 10° NNW 18:25:06 81° ENE 18:30:12 10° SSE
Meteor 2-12 Rocket 4.4 18:20:57 10° N 18:26:59 61° E 18:32:56 10° SSE
BlueWalker 3 3.9 18:28:35 10° NW 18:31:19 18° N 18:33:03 14° NNE
Lacrosse 5 2.2 18:26:33 10° WSW 18:31:37 66° NW 18:35:50 15° NE
SL-4 R/B 3.4 18:29:00 10° NW 18:31:45 21° N 18:33:04 17° NE
COSMOS 2428 4.1 18:29:05 10° SE 18:32:20 18° ESE 18:32:20 18° ESE
ATLAS 2AS CENTAUR R/B 2.7 18:25:53 10° NW 18:32:54 90° SW 18:39:29 10° SSE
BREEZE-M DEB (TANK) 4.1 18:30:26 10° WNW 18:34:37 28° SW 18:36:56 10° SSE
Cosmos 2228 4.3 18:30:51 10° NNW 18:34:51 42° W 18:38:50 10° SSW
SL-16 R/B 2.9 18:30:20 10° SW 18:35:53 56° WNW 18:41:29 10° NNE
Cosmos 1741 Rocket 4.4 18:31:07 10° S 18:36:02 40° ESE 18:40:08 14° NE
Cosmos 1606 Rocket 3.6 18:31:59 10° N 18:36:19 79° W 18:40:37 10° S
In-Cosmos 22 Rocket 4.2 18:30:35 10° S 18:36:23 85° E 18:42:15 10° NNE
IRIDIUM 104 4.4 18:31:18 10° N 18:36:25 54° E 18:41:31 10° SSE
Cosmos 841 Rocket 3.9 18:32:42 10° N 18:37:41 40° ENE 18:42:08 12° SE
Nadezhda 2 Rocket 4.4 18:31:41 10° N 18:37:53 79° E 18:43:59 10° S
Cosmos 2333 4.4 18:33:12 10° S 18:38:30 47° ESE 18:42:54 15° NE
Cosmos 540 Rocket 3.4 18:34:03 10° NNW 18:39:12 69° ENE 18:44:18 10° SSE
Cosmos 1340 3.0 18:36:14 10° N 18:39:41 38° ENE 18:41:59 18° SE
IRIDIUM 114 4.2 18:40:22 10° N 18:45:34 66° E 18:50:45 10° SSE
Cosmos 1892 Rocket 3.5 18:41:53 10° S 18:46:18 88° E 18:50:43 10° N
MINOTAUR 4 R/B 3.8 18:46:22 19° NNE 18:48:43 71° E 18:52:06 10° S
COSMO-SKYMED 1 4.1 18:47:34 10° N 18:51:35 37° WNW 18:55:34 10° SW
Spot 1 4.1 18:51:48 33° NE 18:53:14 48° E 18:57:09 10° S
PAYLOAD B 4.3 18:47:49 10° S 18:53:20 79° WSW 18:58:52 10° NNW
IRIDIUM 103 4.2 18:49:30 10° N 18:54:45 80° E 18:59:58 10° S
Genesis I 3.3 18:54:14 10° SW 18:58:11 76° NW 18:59:51 33° NNE
Cosmos 2322 4.1 18:53:49 10° S 18:59:06 40° ESE 19:00:25 35° ENE
ATLAS CENTAUR R/B 4.3 18:58:17 10° NW 18:59:41 11° NNW 19:01:03 10° NNW
Meteor 1-27 4.2 18:58:25 10° N 19:04:14 88° W 19:09:56 10° S
Cosmos 1869 3.4 19:02:17 10° NNW 19:06:11 74° W 19:10:06 10° S
ISS -1.1 19:06:48 10° W 19:09:16 19° SW 19:11:34 11° S
Cosmos 1633 4.3 19:12:37 10° SW 19:15:35 29° WNW 19:18:35 10° NNW
Okean O Rocket 1.6 19:15:26 10° SSE 19:19:48 84° WSW 19:24:15 10° NNW
Cosmos 1626 Rocket 4.5 19:16:40 10° S 19:19:08 33° SSE 19:19:08 33° SSE
Cosmos 1745 Rocket 3.9 19:17:20 10° N 19:23:37 87° E 19:29:47 10° S
Cosmos 1386 Rocket 4.4 19:20:43 10° N 19:26:44 82° W 19:32:47 10° S
Cosmos 1844 Rocket 3.9 19:27:30 10° NW 19:32:39 40° WSW 19:37:47 10° S
Lacrosse 5 rocket 2.4 19:29:09 10° NW 19:31:18 34° NW 19:31:18 34° NW
Cosmos 1932 4.5 19:27:47 10° SSW 19:34:00 57° ESE 19:34:01 57° ESE
CZ-4B R/B 4.1 19:30:46 10° S 19:35:53 47° W 19:41:08 10° NNW
CZ-4 R/B 2.5 19:35:08 10° S 19:39:04 43° W 19:42:59 10° NNW
Cosmos 1709 Rocket 3.8 19:35:57 10° N 19:42:08 78° E 19:43:12 61° SSE
Cosmos 44 Rocket 3.8 19:44:44 10° SW 19:49:10 55° WNW 19:49:10 55° WNW
Cosmos 2219 Rocket 2.5 19:47:19 10° SW 19:52:50 62° WNW 19:54:10 48° N
Cosmos 2360 Rocket 3.9 19:48:17 10° WSW 19:53:12 30° NW 19:57:40 12° N
Cosmos 2333 Rocket 3.4 19:56:19 10° SW 20:01:33 38° WNW 20:04:25 23° N
Atlas Centaur 2 3.9 19:56:37 10° SW 20:03:52 33° S 20:04:15 33° S
Cosmos 2278 Rocket 3.9 19:59:21 10° NNW 20:01:33 23° N 20:01:33 23° N
Lacrosse 5 3.8 20:11:29 10° WNW 20:15:03 22° NNW 20:15:03 22° NNW
COSMOS 2428 3.7 20:10:45 10° SW 20:14:26 41° SW 20:14:26 41° SW
